DECAYED

STARLINK-1490, 45777 (Decayed)

Orbit data source: Space-Track

STARLINK-1490, 45777 was a payload satellite owned by SpaceX/Seattle (US) in LEO that was launched on Sat, 13 Jun 2020 UTC via an FALCON 9 launch vehicle from the Air Force Eastern Test Range (AFETR). Payload-class satellites include a variety of spacecraft equipped with specific instruments for various scientific and technological missions. These include communications satellites like Starlink; space stations such as the ISS; scientific satellites like the Hubble; Earth observation satellites from companies like Planet Labs, Umbra, and HawkEye 360; GPS; miniature CubeSats for education and research; and military/defense satellites.

Not visible in the next 10 days
Identifier
45777, 2020-038AZ
Orbit
Decayed
Country
Flag of USUS
Related business
Manufacturer
SpaceX/Seattle
Mission
Decayed Commercial Communications
Bus & Motor
STARLINK, Unknown motor
Mass
260 kg wet, ~248 kg dry
Launch date (UTC)
2020-06-13 (6 years ago)
Launch vehicle
FALCON 9
Launch site
Air Force Eastern Test Range (AFETR)
Object type
Payload
Rocket body
Debris
Shape & HBR
Box + 1 Pan, 10.1 m
Radar Cross Section
13.562 m², Large (>1 m²)

Expand to show TLE details & history
Last TLE update: 1 year ago

TLE from 1 year ago
0 STARLINK-1490
1 45777U 20038AZ  25028.21906185  .15945509  12434-4  49649-3 0  9993
2 45777  52.9926  92.8243 0003898 177.4274 249.5251 16.44886392258502
Epoch: 2025-01-28T05:15Z
TLE epoch observation values (Epoch: 2025-01-28T05:15:26.943Z)
Latitude
47.42476°
Longitude
-59.11049°
Altitude
158.9 km
Speed
7.816 km/s
True Right ascension
09h 49m 55s
True Declination
47° 14' 16"
Sunlit
Object was in full shadow at epoch
Visualization orbit readout
Latitude
Unknown
Longitude
Unknown
Altitude
Unknown
Speed
Unknown
Apparent Right ascension
Unknown
Apparent Declination
Unknown
Sunlit
N/A
Visualization observer readout
Local Sidereal Time
11:01:06
Azimuth
Unknown
Elevation
Unknown
Doppler factor
Unknown
Orbital elements
Apogee altitude
155.679 km
Perigee altitude
150.587 km
Semi-major axis
6,531.27 km
Eccentricity
0.00039
Inclination
52.9926°
RAAN
92.8243°
Arg. of periapsis
177.4274°
True anomaly
249.48326°
Mean anomaly
249.5251°
Eccentric anomaly
249.50418°
Mean motion
4.11194 °/min
Orbital period
87.55 mins
BSTAR
0.00049649
Loading maneuver chart data...
Computing Atmospheric mass density...
Loading historical data...
Loading historical data...
Loading historical data...
Loading historical data...
Loading historical data...
Loading historical data...
Loading historical data...

Documentation

Showing up to 5 results
|